Regional Weather Roundup
Issued by NWS Northern Indiana

Home | Current Version | Previous Version | Text Only | Print | Product List | Glossary Off
Versions: 1 2 3 4 5 6 7 8 9 10 11 12 13 14 15 16 17 18 19 20 21 22 23 24 25 26 27 28 29 30 31 32 33 34 35 36 37 38 39 40 41 42 43 44 45 46 47 48 49 50

000
ASUS43 KIWX 222300
RWRIWX

KIWX WEATHER ROUNDUP
NATIONAL WEATHER SERVICE NORTHERN INDIANA
700 PM EDT FRI AUG 22 2014

NOTE: "FAIR" INDICATES FEW OR NO CLOUDS BELOW 12,000 FEET WITH NO
SIGNIFICANT WEATHER AND/OR OBSTRUCTIONS TO VISIBILITY.

* THESE STATIONS ARE NOT UNDER NWS QUALITY CONTROL. THEY ALSO MAY NOT
  REPORT WEATHER SUCH AS PRECIPITATION OR FOG.

INZ001>027-230000-
NORTHERN INDIANA

CITY           SKY/WX    TMP DP  RH WIND       PRES   REMARKS
GARY*          PTSUNNY   86  72  62 W6        29.94S
VALPARAISO     CLOUDY    81  71  71 SW9       29.96S
KNOX*          CLOUDY    82  72  73 W5        29.95S
SOUTH BEND     PTSUNNY   84  73  69 W6        29.96S
ELKHART*       PTSUNNY   84  72  65 CALM      29.96R
GOSHEN         PTSUNNY   85  73  67 E3        29.95S
MONTICELLO*    MOSUNNY   82  74  77 W5        29.96S
WARSAW*        MOSUNNY   82  73  74 CALM      29.96S
ANGOLA*        MOSUNNY   82  72  69 NE3       29.96S
FORT WAYNE     PTSUNNY   81  74  79 SW6       29.96S
PERU/GRISSOM   PTSUNNY   82  78  89 CALM      29.96F

$$
INZ028>050-230000-
CENTRAL INDIANA

CITY           SKY/WX    TMP DP  RH WIND       PRES   REMARKS
LAFAYETTE      PTSUNNY   82  73  74 SW7       29.96R
KOKOMO*        PTSUNNY   81  73  78 CALM      29.96F
MUNCIE*        PTSUNNY   81  72  74 NW8       29.97S
INDIANAPOLIS   PTSUNNY   85  68  56 W7        29.97S

$$
MIZ043>046-050>051-056>058-064>065-071>073-077>080-230000-
SOUTHWEST LOWER MICHIGAN

CITY           SKY/WX    TMP DP  RH WIND       PRES   REMARKS
BATTLE CREEK   SUNNY     81  71  71 NE6       29.98S
BENTON HARBOR  MOSUNNY   79  72  79 W7        29.95R
COLDWATER*     MOSUNNY   81  73  76 NE8       29.97S
HILLSDALE*     PTSUNNY   80  73  76 CALM      29.98F
HOLLAND        PTSUNNY   83  73  72 E3        29.96F
GRAND RAPIDS   PTSUNNY   81  75  82 E5        29.97S
KALAMAZOO      MOSUNNY   82  71  69 VRB5      29.96S
STURGIS*       PTSUNNY   81  73  78 NE6       29.96S
THREE RIVERS*  FAIR      82  72  72 NE3       29.96S

$$
OHZ001>008-015>018-024>025-230000-
NORTHWEST OHIO

CITY           SKY/WX    TMP DP  RH WIND       PRES   REMARKS
DEFIANCE       PTSUNNY   82  72  71 NE5       29.96R
FINDLAY        PTSUNNY   79  75  87 SE3       29.95S
TOLEDO EXPRESS PTSUNNY   80  72  76 CALM      29.95S
TOLEDO METCALF CLOUDY    80  70  71 NE3       29.96S
LIMA           PTSUNNY   81  72  74 NW7       29.96F

$$
&&



USA.gov is the U.S. government's official web portal to all federal, state and local government web resources and services.